Probability
1 4 8 11 13 15 15 13 12 11 9 7 6 5 2 1 1 2 3 3 3 3 3 3 2 1 0 0 0 0 0 0 0 0 0 0 0 0 0 0 0 0 0
1 3 7 12 15 16 15 13 12 11 10 8 7 7 5 2 1 2 3 3 3 3 3 3 2 1 0 0 0 0 0 0 0 0 0 0 0 0 0 0 0 0 0
1 3 7 14 19 18 16 14 13 11 10 8 7 7 7 4 3 3 4 3 3 3 3 3 3 1 1 0 0 0 0 0 0 0 0 0 0 0 0 0 0 0 0
0 1 6 15 20 19 17 15 13 11 10 9 7 7 7 7 6 4 5 4 4 3 3 3 3 3 2 1 0 0 0 0 0 0 0 0 0 0 0 0 0 0 0
1 1 6 14 19 18 18 16 13 11 10 9 7 6 7 8 8 6 6 6 5 4 3 3 3 3 3 1 0 0 0 0 0 0 0 0 0 0 0 0 0 0 0
2 2 5 11 16 17 18 17 15 12 11 9 8 7 7 8 9 8 7 7 6 5 4 3 3 4 3 1 0 0 0 0 0 0 0 0 0 0 0 0 0 0 0
1 1 3 7 11 15 17 17 16 14 13 11 9 8 7 8 9 9 9 7 6 6 5 4 3 3 3 1 0 0 0 0 0 0 0 0 0 1 0 0 0 0 0
2 1 1 3 7 11 14 15 15 16 16 14 12 10 9 9 8 10 10 8 7 6 6 4 3 3 2 1 1 1 0 0 0 0 0 0 0 0 0 0 0 0 0
2 1 1 2 4 6 9 11 12 14 16 17 16 14 12 11 10 10 11 10 8 7 6 4 3 3 2 2 2 1 0 0 0 0 0 0 0 0 0 0 0 0 0
3 3 2 2 2 3 5 7 9 11 14 17 17 16 14 13 12 12 12 12 11 8 6 4 3 3 2 1 1 1 0 0 0 0 0 0 0 0 0 0 0 0 0
5 4 4 4 4 4 4 5 6 7 10 14 15 15 15 15 14 12 11 11 11 8 6 6 5 4 2 1 0 0 0 0 0 0 0 0 0 0 0 0 0 0 0
6 6 7 8 8 7 6 5 4 4 6 9 12 13 14 15 14 12 9 9 9 7 6 7 6 5 2 1 0 0 0 0 0 0 1 0 0 0 0 0 0 0 0
6 7 8 10 11 11 9 7 6 6 6 7 9 12 13 14 14 13 11 9 7 7 6 6 6 5 2 1 1 0 0 0 0 0 0 0 0 0 0 0 0 0 0
7 6 6 9 11 13 12 10 9 10 10 9 10 11 12 14 14 13 12 9 7 6 6 6 6 5 4 2 1 0 0 0 0 0 0 0 0 0 0 0 0 0 0
9 7 6 7 10 13 14 13 13 14 13 11 10 10 11 12 12 11 10 8 6 5 6 6 7 6 5 3 2 1 0 0 0 0 0 0 0 0 0 0 0 0 0
7 8 9 9 11 14 15 14 14 15 13 11 11 10 10 10 10 9 8 8 6 6 6 6 7 7 7 5 3 1 1 1 0 0 0 0 0 0 0 0 0 0 0
4 6 8 9 10 12 13 13 13 12 10 10 11 10 9 9 9 8 8 7 7 6 6 6 7 8 9 7 5 3 2 2 1 0 0 0 0 0 0 0 0 0 0
1 2 4 6 8 9 10 11 11 9 8 8 10 10 8 8 8 7 7 7 7 7 6 6 7 9 10 9 7 5 4 3 2 1 0 0 0 0 0 0 0 0 0
0 0 1 3 5 6 7 7 8 7 6 7 9 9 7 6 5 5 6 7 7 7 7 6 7 8 9 10 9 7 5 4 3 2 1 1 1 1 0 0 0 0 0
0 0 1 2 3 4 5 5 5 5 4 5 6 7 5 3 3 3 4 5 6 7 7 6 6 7 9 9 8 6 5 5 4 3 3 2 2 2 1 0 0 0 0
0 0 0 1 2 3 4 4 4 3 2 2 3 3 3 2 2 3 3 4 4 5 6 6 5 6 7 8 7 5 4 4 4 3 3 3 3 3 2 1 0 0 0
0 0 0 0 1 1 2 3 3 2 1 0 0 0 1 2 3 3 3 3 3 4 4 4 4 4 5 6 6 4 3 2 2 1 1 2 2 2 2 1 0 0 0
0 0 0 0 0 0 1 2 2 1 0 0 0 0 0 1 2 3 3 3 3 3 3 3 2 2 3 4 5 3 2 1 0 0 0 1 1 1 1 0 0 0 0
0 0 0 1 1 0 0 1 1 1 0 0 0 0 0 0 1 1 2 3 3 3 3 3 1 1 1 2 3 3 2 1 1 0 0 0 0 0 0 0 0 0 0
0 0 1 2 1 0 0 0 0 0 0 0 0 0 0 0 0 0 1 1 2 2 2 3 2 1 0 1 1 1 2 2 1 1 0 0 0 0 0 0 0 0 0
0 1 2 2 1 0 0 0 0 0 0 0 0 0 0 0 0 0 0 0 1 1 1 3 2 1 0 0 0 0 1 1 1 1 1 0 0 0 0 0 0 0 0
Wind_Speed
5 6 7 7 9 9 9 10 10 10 10 10 10 10 10 11 11 10 10 11 11 11 11 11 11 12 12 12 12 12 12 12 12 12 12 13 13 12 12 11 9 11 13
5 6 8 8 9 9 10 9 10 10 9 9 10 10 10 10 10 10 10 10 10 10 11 11 11 11 11 12 11 12 12 12 11 11 10 11 12 12 12 11 11 10 12
6 6 8 8 9 9 9 9 9 9 9 9 9 9 10 10 10 10 10 10 10 10 10 10 10 11 11 11 11 11 11 11 10 8 6 8 10 11 11 11 11 12 12
6 6 6 8 8 9 9 9 9 9 9 9 9 9 9 10 10 10 10 10 10 10 10 10 10 10 10 10 10 10 10 10 8 4 5 7 8 10 10 10 10 10 10
6 6 6 7 8 8 9 9 9 9 9 9 9 9 9 10 10 10 10 10 9 9 9 9 9 10 9 9 10 10 10 9 6 4 7 6 7 9 9 9 9 9 9
6 6 6 6 6 8 8 8 8 9 9 9 9 9 9 9 9 9 9 9 9 9 9 9 9 9 9 9 9 9 8 7 4 6 6 6 6 8 9 9 8 8 8
5 5 6 5 5 6 8 8 8 8 9 9 9 9 9 9 9 9 9 9 9 9 9 9 9 9 8 8 8 8 7 4 3 5 5 5 6 7 8 8 8 7 8
5 4 5 5 4 5 6 7 7 8 8 8 8 8 9 9 9 9 9 8 9 9 9 9 9 8 8 8 8 7 6 2 3 4 4 5 7 6 6 6 6 6 6
4 4 4 4 4 4 4 5 5 6 7 8 8 8 7 8 9 9 9 8 8 9 8 8 8 8 8 7 7 7 5 1 2 3 3 4 6 5 6 6 6 6 5
3 3 3 3 4 4 4 3 3 5 6 7 8 7 7 8 8 8 9 8 8 8 8 8 8 8 7 7 7 6 4 2 3 3 2 4 5 5 5 5 5 5 4
3 3 2 2 3 3 3 3 3 4 5 6 7 7 7 7 8 7 7 7 7 8 8 8 7 7 7 7 6 5 3 2 2 2 2 4 4 4 4 4 4 4 3
4 4 3 3 3 2 2 3 3 3 4 6 6 7 6 5 5 5 6 6 7 7 7 7 7 7 5 5 5 4 2 2 2 2 3 4 2 3 4 3 3 3 3
4 4 3 4 4 3 2 2 2 2 3 4 6 6 5 4 4 4 4 5 6 6 6 6 6 4 4 3 3 3 2 2 1 1 3 2 1 2 3 3 3 3 2
4 4 3 4 4 4 3 2 2 2 2 3 4 6 5 3 4 4 3 4 4 4 4 5 4 5 5 4 4 4 3 2 1 1 2 1 1 2 2 3 3 3 2
4 4 4 3 4 4 3 2 2 2 2 3 3 4 5 4 4 4 3 3 4 4 4 4 5 5 5 5 4 4 4 3 3 2 2 1 1 2 3 3 3 3 3
3 3 2 3 3 3 3 3 2 2 2 3 3 4 5 4 4 4 4 4 4 4 4 5 5 5 5 4 5 5 4 4 4 3 2 3 1 2 3 3 3 3 3
3 2 2 2 3 3 3 3 2 2 2 2 3 4 4 4 5 5 4 4 4 4 5 4 5 4 4 4 5 5 4 4 4 4 3 3 3 2 2 4 4 4 4
2 2 2 2 2 3 3 2 2 2 2 2 2 3 4 4 5 5 5 5 5 5 5 5 5 5 4 4 4 4 4 3 5 4 4 3 3 3 3 3 3 4 4
2 2 2 2 2 2 2 2 2 1 2 2 2 2 3 4 4 4 4 5 5 5 5 5 5 5 5 4 4 3 4 4 4 4 5 4 4 3 3 3 3 3 4
2 1 1 1 2 3 2 2 1 2 2 2 2 2 3 3 4 4 3 5 5 5 5 5 5 5 4 4 3 3 3 4 4 4 5 4 4 5 4 4 4 3 4
1 1 1 1 2 2 2 2 2 2 2 2 2 2 3 4 4 4 4 4 4 5 6 7 5 6 5 4 3 3 4 5 5 5 5 5 5 5 5 5 4 3 3
1 1 1 1 2 2 2 2 2 2 2 2 2 2 3 3 4 4 5 4 5 4 6 7 6 5 4 5 4 3 4 5 5 5 5 5 6 5 5 5 5 5 4
2 2 2 3 2 2 3 2 1 1 1 2 2 2 3 4 4 5 5 5 5 5 5 6 7 7 5 5 5 4 4 4 2 4 6 6 6 5 5 5 6 6 6
3 3 3 3 2 2 3 4 4 3 3 3 3 3 3 3 4 4 5 5 6 5 6 6 6 6 6 5 5 5 4 3 3 3 4 5 6 6 6 5 6 6 6
3 3 3 3 2 2 3 4 4 4 4 3 3 3 3 3 3 4 4 5 5 5 5 6 6 6 5 5 4 4 5 4 5 4 4 4 5 5 6 6 6 5 6
3 3 3 2 2 2 2 3 4 5 5 4 4 4 3 2 2 3 4 4 5 5 5 5 6 7 6 6 6 5 5 4 5 5 6 5 5 4 5 5 6 5 5
Wind_Direction
153 156 157 157 151 147 142 140 139 136 136 138 136 133 130 127 126 124 118 114 111 109 107 105 102 99 95 92 89 88 88 88 85 83 83 84 84 85 81 76 77 79 75
146 154 155 158 154 152 147 142 141 139 139 139 140 136 133 132 129 126 123 119 118 115 111 108 104 100 97 94 92 90 89 87 87 85 87 89 85 85 82 72 64 73 74
140 146 154 156 153 154 150 144 141 140 143 143 141 139 139 138 136 132 126 123 121 120 115 110 105 103 100 96 94 93 92 91 87 90 101 97 90 86 84 80 77 76 75
145 149 150 147 152 153 151 150 146 144 144 143 141 141 140 143 141 136 132 128 124 121 117 113 109 106 104 100 99 97 94 92 89 98 97 89 90 85 84 83 81 78 76
144 147 138 137 148 149 150 151 150 149 147 147 146 144 143 140 139 139 136 132 128 124 120 117 113 110 107 105 104 101 98 94 93 96 87 89 89 85 84 83 82 82 79
146 145 133 131 138 148 151 153 152 151 152 152 150 149 146 143 139 137 136 134 131 128 125 120 115 111 111 110 108 107 105 105 122 90 88 88 90 89 87 85 84 84 83
143 142 137 129 127 140 150 154 157 157 158 158 155 153 151 147 143 140 138 138 134 132 130 127 124 120 119 117 114 110 106 101 99 94 90 87 88 91 92 91 86 83 83
144 143 136 125 128 126 148 154 158 160 162 162 159 157 155 154 151 148 144 143 142 139 137 134 130 127 124 122 118 114 108 114 114 100 94 93 91 93 93 92 89 86 82
145 150 148 151 143 134 132 153 161 164 165 162 160 158 156 158 158 156 152 149 149 146 142 141 139 134 128 123 119 114 104 60 132 104 100 96 98 101 97 96 95 89 83
153 162 166 166 165 162 158 133 161 170 169 167 162 158 155 158 160 159 160 154 154 152 149 148 142 137 130 123 120 117 118 201 125 116 112 101 107 109 104 103 96 94 91
173 177 177 188 187 180 172 148 157 175 174 176 169 157 164 173 172 170 165 156 159 156 155 152 146 138 133 128 122 127 170 176 129 114 103 97 121 119 117 111 104 99 102
193 191 191 199 199 190 181 171 180 192 190 192 185 176 180 178 174 170 151 155 157 156 159 155 145 150 167 157 146 171 183 171 152 133 100 96 125 134 130 127 122 123 118
204 202 201 205 203 198 193 190 183 198 201 199 194 185 182 178 176 175 168 166 171 171 173 162 171 181 184 173 175 185 186 183 173 148 113 106 139 147 141 137 134 134 138
214 218 215 211 209 209 201 198 194 204 219 202 196 193 187 183 184 180 184 184 186 183 184 185 189 186 188 187 189 189 189 200 197 176 116 114 221 198 173 153 147 147 139
224 224 221 218 216 211 203 206 198 205 226 213 203 200 196 191 188 182 182 186 189 188 190 194 193 189 193 195 199 199 199 206 208 204 153 125 265 243 200 177 170 169 161
237 232 223 220 223 213 205 204 206 210 224 221 207 204 203 200 193 187 191 193 193 197 199 201 198 195 199 200 202 206 211 214 217 215 209 172 195 252 231 209 196 192 184
252 239 223 210 212 215 215 213 215 215 225 225 213 207 204 205 199 192 195 198 196 194 200 201 199 200 202 201 207 211 217 223 223 222 221 219 199 198 233 232 216 212 206
273 259 230 209 209 213 218 215 214 217 225 223 219 208 204 205 207 198 197 200 198 192 196 198 197 195 199 206 211 209 214 218 227 227 223 221 221 211 199 215 227 228 224
282 262 236 216 211 208 216 214 202 206 223 219 219 213 213 206 202 207 207 201 195 193 195 197 202 199 201 206 213 218 221 220 224 222 220 216 215 219 216 183 209 242 242
291 270 257 236 229 214 200 207 204 206 223 224 222 216 216 213 205 205 209 207 200 196 198 198 200 203 206 200 203 220 229 229 225 223 221 215 212 216 222 220 214 212 236
325 290 274 276 266 230 201 204 216 225 225 223 226 227 220 216 211 213 208 204 206 206 205 202 201 201 202 191 196 215 226 227 226 218 218 219 213 214 221 223 226 230 223
299 300 283 264 257 251 241 229 232 233 230 229 227 222 222 221 216 216 211 207 207 212 209 204 201 200 204 200 202 209 221 214 214 221 221 225 225 217 222 226 229 232 239
287 290 286 269 254 253 245 229 211 213 216 218 221 226 229 229 229 226 220 216 211 212 214 208 204 205 205 206 211 214 224 228 206 206 220 223 224 223 225 228 233 232 236
288 285 274 271 270 258 237 224 221 224 230 237 234 236 239 236 237 236 230 224 221 217 218 217 210 209 207 208 212 228 246 272 235 219 206 218 227 231 230 228 231 230 230
294 289 278 270 266 255 239 233 226 231 238 239 235 239 241 239 239 244 237 231 227 225 223 221 216 213 212 214 213 212 221 236 246 246 242 226 224 229 232 232 231 229 227
306 301 291 279 277 271 253 243 234 230 229 228 231 238 242 243 239 243 244 236 230 227 224 222 218 217 218 220 220 218 216 216 218 230 244 243 245 236 232 232 229 226 224